Weather observations for the past three days for
Piarco International Airport
Imperial (Metric)
Date Time (ast) Wind (mph) Vis. (mi.) Weather Sky Cond. Temperature (ºF) Relative Humidity Wind Chill (°F) Heat Index (°F) Pressure Precipitation (in)
Air Dwpt 6 hour altimeter (in) sea level (mb) 1 hr 3 hr 6 hr
Max. Min.
09 13:00 SE 17 0.00 Partly Cloudy SCT025 87.8 66.2 49% 90 0 0.0
09 12:00 E 18 0.00 Mostly Cloudy BKN025 89.6 66.2 46% 92 0 0.0
09 11:00 E 16 0.00 Mostly Cloudy BKN020 87.8 68 52% 91 0 0.0
09 10:00 SE 14 0.00 Mostly Cloudy BKN020 86 71.6 62% 92 0 0.0
09 09:00 SE 17 0.00 Mostly Cloudy BKN020 84.2 71.6 66% 90 0 0.0
09 08:00 E 12 0.00 A Few Clouds FEW016 82.4 71.6 70% 87 0 0.0
09 07:00 Calm 0.00 A Few Clouds FEW016 77 69.8 79% 79 0 0.0
09 06:00 Calm 0.00 A Few Clouds FEW001 75.2 69.8 83% 75 0 0.0
09 05:00 Calm 0.00 Partly Cloudy SCT016 73.4 69.8 89% 0 0.0
09 04:00 Calm 0.00 A Few Clouds FEW016 75.2 69.8 83% 75 0 0.0
09 03:00 Calm 0.00 A Few Clouds FEW016 73.4 69.8 89% 0 0.0
09 02:00 Calm 0.00 A Few Clouds FEW016 75.2 69.8 83% 75 0 0.0
09 01:00 Calm 0.00 A Few Clouds FEW016 75.2 68 78% 76 0 0.0
09 00:00 E 3 0.00 A Few Clouds FEW016 77 68 74% 79 0 0.0
08 23:00 E 5 0.00 A Few Clouds FEW016 78.8 68 70% 81 0 0.0
08 22:00 E 5 0.00 A Few Clouds FEW018 78.8 68 70% 81 0 0.0
08 21:00 E 6 0.00 A Few Clouds FEW018 78.8 69.8 74% 81 0 0.0
08 20:00 E 7 0.00 A Few Clouds FEW018 80.6 68 66% 83 0 0.0
08 19:00 E 6 0.00 A Few Clouds FEW020 80.6 68 66% 83 0 0.0
08 18:00 E 14 0.00 A Few Clouds FEW022 82.4 64.4 55% 84 0 0.0
08 17:00 E 15 0.00 Smoke FEW024 86 66.2 52% 88 0 0.0
08 16:00 E 16 0.00 Smoke FEW026 87.8 66.2 49% 90 0 0.0
08 15:00 SE 15 0.00 A Few Clouds FEW026 87.8 68 52% 91 0 0.0
08 14:00 SE 14 0.00 A Few Clouds FEW026 86 69.8 59% 91 0 0.0
08 13:00 SE 10 0.00 A Few Clouds FEW026 87.8 69.8 55% 93 0 0.0
08 12:00 E 16 0.00 A Few Clouds FEW024 87.8 68 52% 91 0 0.0
08 11:00 E 14 0.00 A Few Clouds FEW024 87.8 66.2 49% 90 0 0.0
08 10:00 SE 14 0.00 A Few Clouds FEW022 86 66.2 52% 88 0 0.0
08 09:00 E 16 0.00 A Few Clouds FEW020 84.2 68 58% 87 0 0.0
08 08:00 E 12 0.00 A Few Clouds FEW018 82.4 69.8 66% 86 0 0.0
08 07:00 E 8 0.00 Showers in Vicinity FEW016 80.6 69.8 70% 84 0 0.0
08 06:00 E 6 0.00 Showers in Vicinity FEW016 78.8 71.6 79% 82 0 0.0
08 05:00 Calm 0.00 Mostly Cloudy BKN016 78.8 71.6 79% 82 0 0.0
08 04:00 SE 3 0.00 A Few Clouds FEW016 78.8 71.6 79% 82 0 0.0
08 03:00 Calm 0.00 A Few Clouds FEW016 78.8 71.6 79% 82 0 0.0
08 02:00 SE 3 0.00 A Few Clouds FEW016 78.8 71.6 79% 82 0 0.0
08 01:00 Calm 0.00 A Few Clouds FEW016 78.8 71.6 79% 82 0 0.0
08 00:00 E 3 0.00 A Few Clouds FEW016 78.8 71.6 79% 82 0 0.0
07 23:00 E 3 0.00 A Few Clouds FEW018 78.8 71.6 79% 82 0 0.0
07 22:00 E 6 0.00 A Few Clouds FEW018 80.6 71.6 74% 85 0 0.0
07 21:00 E 6 0.00 A Few Clouds FEW018 80.6 71.6 74% 85 0 0.0
07 20:00 E 8 0.00 A Few Clouds FEW018 80.6 71.6 74% 85 0 0.0
07 19:00 SE 6 0.00 A Few Clouds FEW018 82.4 71.6 70% 87 0 0.0
07 18:00 E 9 0.00 Showers in Vicinity FEW020 84.2 69.8 62% 88 0 0.0
07 17:00 E 14 0.00 Showers in Vicinity FEW020 86 71.6 62% 92 0 0.0
07 16:00 SE 12 0.00 Showers in Vicinity FEW022 87.8 69.8 55% 93 0 0.0
07 15:00 SE 15 0.00 Partly Cloudy SCT024 89.6 71.6 55% 96 0 0.0
07 14:00 SE 14 0.00 A Few Clouds FEW022 89.6 69.8 52% 95 0 0.0
07 13:00 SE 13 0.00 Showers in Vicinity FEW022 89.6 69.8 52% 95 0 0.0
07 12:00 SE 14 0.00 Showers in Vicinity FEW020 87.8 68 52% 91 0 0.0
07 11:00 SE 12 0.00 A Few Clouds FEW025 87.8 68 52% 91 0 0.0
07 10:00 E 14 0.00 Partly Cloudy SCT025 86 71.6 62% 92 0 0.0
07 09:00 E 14 0.00 Partly Cloudy FEW018 SCT022 86 71.6 62% 92 0 0.0
07 08:00 E 13 0.00 A Few Clouds FEW020 84.2 71.6 66% 90 0 0.0
07 07:00 Vrbl 2 0.00 A Few Clouds FEW016 78.8 71.6 79% 82 0 0.0
07 06:00 Calm 0.00 Smoke FEW016 77 71.6 83% 78 0 0.0
07 05:00 SE 3 0.00 Smoke FEW016 78.8 71.6 79% 82 0 0.0
07 04:00 E 3 0.00 Smoke SCT016 77 71.6 83% 78 0 0.0
07 03:00 Vrbl 1 0.00 A Few Clouds FEW016 78.8 71.6 79% 82 0 0.0
07 02:00 Vrbl 2 0.00 A Few Clouds FEW016 78.8 71.6 79% 82 0 0.0
07 01:00 Calm 0.00 A Few Clouds FEW016 78.8 71.6 79% 82 0 0.0
07 00:00 Vrbl 2 0.00 A Few Clouds FEW016 78.8 71.6 79% 82 0 0.0
06 23:00 E 7 0.00 NULL NULL 80.6 71.6 74% 85 0 0.0
06 22:00 E 7 0.00 A Few Clouds FEW016 80.6 73.4 79% 85 0 0.0
06 21:00 E 6 0.00 A Few Clouds FEW016 80.6 73.4 79% 85 0 0.0
06 20:00 E 6 0.00 A Few Clouds FEW016 80.6 73.4 79% 85 0 0.0
06 19:00 E 9 0.00 A Few Clouds FEW018 82.4 71.6 70% 87 0 0.0
06 18:00 E 12 0.00 Showers in Vicinity SCT020 84.2 71.6 66% 90 0 0.0
06 17:00 E 14 0.00 A Few Clouds FEW022 86 69.8 59% 91 0 0.0
06 16:00 SE 14 0.00 Partly Cloudy SCT026 86 69.8 59% 91 0 0.0
06 15:00 SE 14 0.00 Partly Cloudy SCT026 87.8 69.8 55% 93 0 0.0
06 14:00 E 14 0.00 Mostly Cloudy BKN026 87.8 69.8 55% 93 0 0.0
Date Time (ast) Wind (mph) Vis. (mi.) Weather Sky Cond. Air Dwpt Max. Min. Relative Humidity Wind Chill (°F) Heat Index (°F) altimeter (in) sea level (mb) 1 hr 3 hr 6 hr
6 hour
Temperature (ºF) Pressure Precipitation (in)